METAR Formatted Surface Weather Observation
Issued by NWS

Home | Current Version | Previous Version | Text Only | Print | Product List | Glossary On
Versions: 1 2 3 4 5 6 7 8 9 10 11 12 13 14 15 16 17 18 19 20 21 22 23 24 25 26 27 28 29 30 31 32 33 34 35 36 37 38 39 40 41 42 43 44 45 46 47 48 49 50
954
SAUS46 KLOX 230758
MTRNFG
METAR KNFG 230756Z AUTO 20008KT 7SM FEW013 SCT019 OVC055 14/13 A2996
RMK AO2 SLP143 T01440133 401500078 $



USA.gov is the U.S. government's official web portal to all federal, state and local government web resources and services.